Flag for Jamaica Weather past 2 weeks in Montego Bay, Jamaica

Now
79 °F

Partly sunny.


Feels Like: 83 °F
Forecast: N/A
Wind: 2 mph from North

Location: Montego Bay / Sangster

Current Time: Aug 27, 2014 at 4:33:36 PM

Latest Report: Aug 27, 2014 at 4:00 PM


Visibility: N/A

Pressure: 29.92 "Hg

Humidity: 94%

Dew point: 77 °F

Location of Montego BayLocation

Historic Weather in Montego Bay — Graph

°F

Montego Bay temperature yesterday

Maximum temperature yesterday: 90 °F (at 10:00 AM)
Minimum temperature yesterday: 81 °F (at 12:00 AM)
Average temperature yesterday: 84 °F

Past Weeks' High & Low Weather Summary

 TemperatureHumidityPressure
High91 °F (Aug 14, 1:00 PM)94% (Aug 14, 6:00 AM)30.01 "Hg (Aug 14, 6:00 AM)
Low77 °F (Aug 14, 6:00 AM)55% (Aug 16, 3:00 AM)29.71 "Hg (Aug 24, 3:00 AM)
Average83 °F80%29.91 "Hg
* Reported Aug 12 3:00 PM — Aug 27 3:00 PM, Montego Bay, Weather by CustomWeather, © 2014

Note: Actual official high and low records may vary slightly from our data, if they occured in-between our weather recording intervals... More about our weather records

Advertising

Montego Bay weather history for previous 24 hours

 ConditionsComfort  
Time TempWeatherWind HumidityBarometerVisibility
3:00 PM
Aug 27
77 °FThunderstorms. Broken clouds.6 mph94%29.92 "HgN/A
2:00 PM81 °FStrong thunderstorms. Broken clouds.5 mph89%29.92 "Hg2 mi
12:00 PM86 °FSprinkles. Partly sunny.8 mph79%29.92 "HgN/A
11:00 AM88 °FScattered clouds.12 mph75%29.92 "HgN/A
10:00 AM90 °FPassing clouds.5 mph67%29.92 "HgN/A
9:00 AM88 °FPassing clouds.8 mph70%29.89 "HgN/A
8:00 AM84 °FSunny.5 mph74%29.89 "Hg10 mi
7:00 AM81 °FSunny.5 mph84%29.86 "Hg10 mi
6:00 AM79 °FPassing clouds.2 mph89%29.86 "HgN/A
5:00 AM81 °FPassing clouds.2 mph84%29.86 "HgN/A
4:00 AM79 °FPassing clouds.3 mph89%29.89 "HgN/A
3:00 AM81 °FThundershowers. Passing clouds.3 mph84%29.86 "HgN/A
2:00 AM81 °FPassing clouds.6 mph84%29.92 "HgN/A
1:00 AM81 °FThundershowers. Passing clouds.3 mph84%29.89 "HgN/A
12:00 AM82 °FThundershowers. Passing clouds.3 mph79%29.92 "HgN/A
11:00 PM
Aug 26
82 °FThundershowers. Passing clouds.3 mph84%29.95 "HgN/A
10:00 PM82 °FPassing clouds.5 mph79%29.95 "HgN/A
9:00 PM82 °FPassing clouds.2 mph79%29.92 "HgN/A
8:00 PM84 °FPassing clouds.2 mph74%29.86 "HgN/A
7:00 PM84 °FPassing clouds.7 mph74%29.86 "HgN/A
6:00 PM86 °FScattered clouds.6 mph70%29.83 "HgN/A
5:00 PM86 °FScattered clouds.5 mph84%29.80 "HgN/A
4:00 PM88 °FPartly sunny.9 mph79%29.80 "HgN/A
Weather by CustomWeather, © 2014

See weather overviewHow to use our weather pages